Location: Foligno
(42.9600°N, 12.7050°E)
Time: 17:34:27
(UTC+02:00)

ISS - Pass Details

Date: 24 May 2018
Orbit: 402 x 407 km, 51.6° (Epoch: 27 May)

Event Time Altitude Azimuth Distance (km) Brightness Sun altitude
Rises 22:51:13 0° 277° (W) 2,317 0.6 -19.0°
Reaches altitude 10° 22:53:38 10° 294° (WNW) 1,458 -0.2 -19.3°
Maximum altitude 22:56:13 21° 347° (NNW) 960 -1.1 -19.5°
Drops below altitude 10° 22:58:49 10° 40° (NE) 1,459 -0.8 -19.8°
Sets 23:01:14 0° 57° (ENE) 2,319 0.1 -20.0°
